Wind_Speed
6 5 4 4 4 5 5 5 5 5 5 5 5 4 4 4 4 5 5 5 5 6 7 7 8 8 9 9 10 10 10 10 11 11 12 12 12 12 12 12 13 14 15
6 5 5 5 5 5 5 6 5 5 5 5 5 4 3 4 4 4 5 5 6 6 7 8 9 9 9 9 10 10 11 10 10 11 12 12 12 13 13 13 13 13 14
5 5 5 4 4 5 5 5 5 5 5 5 5 4 4 4 4 4 5 6 6 7 7 8 9 9 9 9 9 10 10 10 11 11 12 13 13 13 13 13 13 13 15
5 5 5 4 5 5 5 5 5 4 4 4 4 4 4 4 5 5 6 6 7 7 8 8 8 9 9 9 9 9 10 10 11 12 12 13 13 13 14 14 13 14 14
6 6 5 5 5 5 6 5 4 4 4 4 4 4 4 4 5 6 6 6 7 8 8 9 9 9 9 9 10 10 11 11 11 12 12 13 14 13 14 14 14 15 15
6 6 6 5 5 5 5 5 5 5 5 5 4 5 5 5 6 6 6 7 8 8 9 9 9 9 9 9 10 10 10 11 11 11 12 13 13 13 14 15 16 16 16
5 6 5 5 5 5 5 5 5 5 5 5 5 5 5 5 6 6 7 7 8 8 8 8 8 9 9 9 10 9 10 10 11 11 12 13 13 14 15 16 16 16 16
6 6 5 5 5 5 5 5 5 5 5 5 5 5 6 6 6 6 7 7 8 8 8 8 7 8 9 9 10 10 10 10 11 12 12 12 13 14 15 15 16 16 17
6 6 5 5 5 5 5 5 5 5 5 6 6 6 7 6 6 6 7 7 7 7 7 8 8 8 9 9 9 9 10 10 11 12 12 12 12 13 14 14 14 14 15
6 6 5 5 5 5 6 6 6 6 6 6 6 7 7 7 6 7 7 7 7 7 7 8 8 9 9 9 9 9 10 10 10 11 12 12 13 14 14 14 14 14 15
7 7 6 6 6 6 6 6 7 7 7 7 7 7 7 7 7 7 7 7 8 8 8 8 9 9 10 10 10 10 11 11 11 12 13 13 13 14 15 15 15 16 16
8 8 7 7 7 7 7 7 7 7 7 7 7 8 8 7 7 7 7 8 8 9 9 9 9 9 10 10 10 11 11 12 12 13 14 15 15 15 15 16 17 17 18
9 9 9 8 8 7 7 7 7 7 7 7 8 8 8 8 8 8 8 9 9 10 10 10 10 10 10 11 11 12 12 13 14 14 15 16 17 17 17 17 18 19 19
10 10 9 9 9 9 9 8 8 8 8 9 9 8 8 8 9 9 9 9 10 10 10 10 10 11 11 12 12 13 14 14 15 16 16 17 18 19 19 20 20 21 21
11 11 10 10 10 10 10 9 10 10 9 9 9 9 9 9 9 9 10 10 11 11 11 11 11 12 13 14 14 15 15 16 16 17 17 18 19 20 21 21 21 22 23
12 11 11 11 11 11 11 11 11 10 10 10 10 10 10 10 10 10 11 12 12 12 12 13 13 14 14 15 15 16 17 17 18 19 19 20 21 22 23 23 23 24 24
13 13 13 12 12 12 12 12 11 11 12 12 12 12 11 11 11 12 12 13 13 13 14 14 15 15 16 16 17 17 18 19 20 20 21 22 22 22 23 23 24 25 26
14 14 14 13 13 13 13 13 12 13 13 13 13 13 13 13 13 13 14 14 14 14 15 16 16 17 18 18 18 19 20 20 21 22 22 23 24 24 25 25 27 27 28
15 15 15 14 14 14 14 14 14 13 14 14 14 15 15 15 15 15 15 15 15 16 16 17 17 18 19 20 20 21 22 22 23 23 25 25 26 27 28 29 29 30 31
16 16 15 15 15 15 15 15 15 15 15 15 15 16 16 17 16 16 16 16 17 17 18 19 19 20 21 21 22 23 24 24 25 26 27 28 29 30 31 32 33 34 34
16 16 16 16 15 15 15 15 15 16 16 16 17 17 17 17 18 18 18 18 18 19 19 20 21 22 22 23 23 24 25 26 27 28 29 30 31 32 33 35 36 37 38
17 17 17 17 17 16 16 16 16 17 17 18 18 18 19 19 20 20 20 20 21 21 21 22 22 22 23 24 24 26 27 27 29 30 31 31 32 34 35 36 37 38 39
18 18 18 18 17 17 17 17 18 18 18 18 18 18 19 20 21 21 21 21 22 22 22 23 23 24 25 26 27 28 29 30 31 31 32 34 35 36 37 38 39 40 41
19 19 18 18 18 17 17 18 18 18 17 18 18 20 21 21 22 22 22 22 23 23 24 24 25 26 27 28 28 29 30 31 32 33 34 36 37 38 39 40 41 41 42
19 19 18 19 18 18 18 18 18 18 19 19 20 21 21 22 23 23 23 24 24 25 25 26 26 27 28 29 30 31 31 32 34 35 37 37 38 39 40 41 42 42 43
19 19 19 19 19 18 18 18 18 19 19 19 20 21 22 22 23 23 24 25 25 25 26 27 28 29 30 31 32 32 33 34 36 37 38 39 40 41 41 42 43 43 43
Wind_Direction
309 302 294 288 289 292 301 302 306 311 308 309 310 307 293 293 293 290 288 291 289 291 292 293 292 290 290 288 284 283 284 283 279 281 276 272 273 270 269 271 268 266 262
305 300 287 291 295 298 298 300 298 303 300 303 307 307 305 295 297 298 294 291 290 291 293 293 293 289 286 286 286 284 283 281 281 279 278 276 275 272 269 271 270 270 267
302 303 295 292 298 304 306 306 300 302 302 309 308 307 306 295 295 295 290 294 295 296 299 297 294 292 290 287 287 286 283 282 281 281 280 279 279 274 271 273 274 272 269
298 301 296 288 287 292 297 301 299 298 308 318 315 308 304 298 294 294 292 294 299 300 300 302 298 296 294 291 290 290 288 285 284 287 286 285 282 278 277 279 279 278 277
290 294 295 291 287 287 290 293 296 302 310 316 316 311 309 306 294 296 293 297 300 302 302 301 297 296 297 293 292 292 290 287 288 289 289 288 283 281 281 280 280 279 277
284 286 288 289 287 285 285 289 292 297 306 311 310 313 316 312 307 303 299 299 301 303 303 301 299 295 298 298 296 296 297 293 292 294 295 293 288 284 284 283 282 278 277
288 291 283 280 282 281 283 286 291 301 305 307 307 313 318 315 311 312 308 306 305 304 302 303 302 300 300 300 299 300 302 301 298 298 300 297 295 293 292 290 284 280 280
291 289 287 285 284 284 285 289 291 299 303 304 305 311 314 314 311 313 311 309 307 308 304 306 305 306 305 303 301 299 302 300 300 300 302 300 302 301 301 295 288 284 282
287 287 286 284 284 284 287 291 294 290 296 300 304 309 310 310 311 311 314 315 315 314 311 309 308 312 311 310 308 305 304 304 303 302 303 302 305 306 308 306 299 293 287
282 283 283 280 279 283 285 286 292 293 296 299 300 301 302 305 307 308 311 316 319 318 317 318 316 316 313 313 311 310 309 309 308 308 308 305 305 305 304 304 302 298 295
275 279 281 280 276 278 282 288 291 293 293 296 299 301 302 304 303 305 309 311 313 314 314 317 318 316 312 311 311 312 311 310 311 311 311 308 305 304 304 303 302 300 297
274 276 279 277 277 276 278 284 288 290 290 293 297 300 303 303 303 299 304 308 310 311 311 311 313 315 314 313 312 311 313 312 311 311 311 312 309 307 304 301 300 301 299
273 275 279 277 272 273 277 280 281 283 289 292 294 295 297 297 296 297 303 308 309 311 312 312 311 312 312 312 312 312 313 313 312 312 312 312 311 309 306 302 299 298 297
271 275 276 275 276 275 280 281 278 279 284 290 288 285 286 289 293 295 301 306 308 308 309 311 312 312 313 313 312 311 311 312 311 310 309 310 310 308 307 305 302 299 297
269 274 275 276 277 277 278 281 280 280 285 287 286 285 285 286 290 293 298 303 304 305 306 308 310 310 310 309 310 310 309 309 310 310 310 310 309 308 307 305 304 303 299
268 272 274 275 277 277 278 279 281 280 284 285 287 288 288 287 290 295 299 302 303 303 304 305 306 307 309 310 310 310 309 309 309 309 309 309 308 306 306 304 303 303 301
267 269 272 273 274 276 276 276 278 276 278 281 285 286 287 287 289 294 299 301 301 301 303 304 305 305 306 307 308 309 309 309 310 309 310 309 310 309 309 308 307 305 303
268 270 272 271 272 273 274 275 277 278 279 279 282 284 286 286 289 292 295 297 299 301 301 302 303 304 305 306 306 307 308 308 307 308 308 308 307 307 307 306 305 304 304
269 270 270 270 271 273 275 277 280 280 280 281 282 283 285 286 289 291 292 295 296 298 299 300 301 302 303 305 306 306 307 306 306 306 307 307 306 305 305 304 304 303 303
268 268 268 269 270 273 276 279 278 280 281 281 282 283 285 286 288 290 291 292 293 294 296 298 299 300 301 303 304 305 306 306 305 306 305 305 305 305 304 304 304 303 303
265 266 267 269 270 273 274 274 277 279 281 281 282 284 285 287 289 290 290 290 291 292 294 297 299 300 301 302 303 305 305 306 306 306 306 306 305 305 304 304 303 303 303
265 265 267 269 270 271 271 274 276 279 281 283 282 283 286 288 289 289 290 290 291 292 294 295 297 299 300 301 303 305 306 306 306 305 305 305 304 304 304 304 303 303 303
266 265 267 268 269 270 271 275 278 278 281 283 283 285 286 287 288 289 289 290 291 293 294 295 298 298 299 300 303 304 305 305 306 305 305 305 305 305 305 304 304 303 303
266 265 264 265 267 270 273 276 278 280 284 284 285 287 288 289 289 288 288 289 291 293 295 296 297 298 299 300 302 304 304 305 306 306 306 306 306 306 306 306 305 304 304
265 265 265 264 265 271 275 277 281 283 285 285 287 288 288 289 288 288 289 290 291 292 295 296 296 297 299 301 302 304 305 305 306 307 307 307 306 306 306 306 306 305 304
265 266 266 267 268 271 275 277 281 284 285 288 290 289 289 289 290 290 291 292 292 293 294 294 296 298 300 301 303 304 305 305 306 307 307 307 307 307 306 306 305 305 304
Height
5876 5876 5876 5876 5876 5876 5876 5875 5875 5875 5875 5874 5874 5874 5873 5873 5873 5873 5873 5873 5873 5873 5873 5873 5873 5873 5873 5873 5873 5873 5873 5873 5872 5872 5873 5873 5873 5873 5874 5874 5874 5875 5876
5875 5875 5875 5875 5875 5875 5875 5875 5874 5874 5874 5873 5873 5873 5872 5872 5872 5872 5872 5872 5872 5872 5872 5871 5871 5871 5871 5871 5871 5871 5871 5871 5870 5870 5870 5870 5870 5870 5871 5871 5871 5872 5872
5874 5874 5874 5874 5874 5874 5874 5874 5874 5873 5873 5873 5872 5872 5872 5871 5871 5871 5871 5871 5871 5871 5871 5870 5870 5870 5869 5869 5869 5869 5868 5868 5868 5868 5868 5867 5867 5867 5867 5868 5868 5868 5868
5874 5874 5874 5873 5873 5873 5873 5873 5873 5873 5872 5872 5871 5871 5871 5870 5870 5870 5870 5870 5870 5870 5869 5869 5868 5868 5867 5867 5867 5866 5866 5866 5866 5865 5865 5865 5863 5863 5864 5864 5864 5864 5865
5873 5873 5873 5872 5872 5872 5872 5872 5872 5872 5871 5871 5871 5870 5870 5869 5869 5869 5869 5869 5869 5868 5868 5867 5867 5866 5865 5865 5865 5864 5864 5863 5863 5863 5863 5862 5862 5861 5861 5860 5860 5860 5860
5872 5872 5872 5871 5871 5871 5871 5871 5871 5871 5870 5870 5870 5870 5869 5869 5868 5868 5868 5868 5867 5867 5866 5865 5864 5864 5863 5863 5863 5862 5862 5861 5861 5860 5860 5859 5859 5858 5858 5857 5856 5856 5856
5871 5871 5871 5870 5870 5870 5870 5870 5870 5870 5870 5869 5869 5869 5869 5868 5868 5867 5867 5866 5866 5865 5864 5863 5862 5862 5862 5861 5860 5860 5859 5859 5859 5858 5857 5857 5856 5855 5854 5852 5851 5851 5851
5870 5870 5870 5869 5869 5869 5869 5869 5869 5869 5869 5869 5869 5868 5868 5868 5867 5866 5866 5865 5864 5863 5862 5861 5861 5860 5860 5859 5858 5858 5857 5857 5857 5856 5855 5854 5853 5852 5850 5848 5847 5846 5847
5868 5868 5869 5868 5868 5868 5868 5868 5868 5868 5868 5868 5868 5868 5867 5867 5866 5865 5865 5864 5863 5862 5861 5860 5859 5859 5858 5857 5857 5856 5855 5855 5854 5853 5852 5851 5850 5849 5847 5846 5844 5843 5844
5867 5867 5867 5867 5867 5867 5867 5867 5867 5867 5867 5867 5867 5866 5866 5865 5865 5864 5863 5863 5862 5861 5860 5859 5858 5857 5857 5856 5855 5854 5854 5853 5852 5851 5850 5849 5848 5847 5845 5844 5842 5842 5841
5866 5866 5866 5866 5866 5866 5866 5866 5866 5866 5866 5866 5865 5865 5864 5864 5863 5863 5862 5862 5861 5860 5859 5858 5857 5856 5855 5854 5853 5852 5852 5851 5850 5849 5847 5846 5845 5844 5843 5841 5840 5839 5839
5864 5864 5864 5864 5864 5864 5864 5864 5864 5864 5864 5864 5864 5863 5863 5862 5862 5861 5861 5860 5860 5859 5858 5856 5855 5854 5853 5852 5851 5850 5849 5848 5847 5846 5845 5844 5842 5840 5839 5838 5837 5836 5835
5862 5862 5863 5863 5862 5863 5863 5863 5863 5863 5863 5862 5862 5862 5861 5861 5860 5860 5859 5859 5858 5857 5856 5855 5854 5853 5852 5851 5849 5848 5847 5846 5845 5843 5842 5841 5839 5837 5836 5834 5833 5832 5830
5860 5860 5860 5860 5860 5860 5860 5860 5861 5861 5861 5860 5860 5860 5859 5859 5859 5858 5858 5857 5856 5856 5855 5853 5852 5851 5850 5849 5847 5846 5845 5843 5842 5840 5839 5837 5835 5834 5832 5830 5829 5827 5826
5858 5858 5858 5858 5858 5858 5858 5858 5858 5858 5858 5858 5858 5858 5857 5857 5856 5856 5855 5855 5854 5853 5853 5851 5850 5849 5848 5846 5845 5844 5842 5840 5839 5837 5835 5833 5832 5830 5828 5826 5824 5822 5820
5855 5855 5855 5855 5855 5855 5856 5856 5856 5856 5856 5856 5855 5855 5855 5855 5854 5854 5853 5852 5851 5851 5850 5849 5848 5846 5845 5844 5842 5840 5839 5837 5835 5833 5831 5829 5827 5825 5823 5821 5819 5817 5815
5852 5852 5852 5852 5853 5853 5853 5853 5853 5853 5853 5853 5853 5852 5852 5852 5851 5851 5850 5849 5848 5848 5847 5845 5844 5843 5842 5840 5838 5837 5835 5833 5831 5829 5827 5825 5822 5820 5818 5815 5813 5811 5808
5848 5849 5849 5850 5850 5850 5850 5850 5850 5850 5850 5850 5850 5849 5849 5849 5848 5847 5847 5846 5845 5844 5843 5842 5840 5839 5838 5836 5834 5833 5831 5828 5826 5824 5822 5819 5817 5814 5812 5810 5807 5804 5802
5845 5845 5846 5846 5846 5846 5847 5847 5847 5847 5846 5846 5846 5846 5846 5845 5845 5844 5843 5842 5841 5840 5839 5838 5836 5835 5833 5831 5830 5828 5826 5823 5821 5819 5816 5813 5811 5808 5805 5803 5800 5797 5794
5841 5842 5842 5842 5843 5843 5843 5843 5843 5843 5843 5843 5843 5842 5842 5841 5840 5840 5839 5838 5837 5836 5835 5833 5832 5830 5828 5826 5825 5822 5820 5818 5815 5813 5810 5807 5804 5801 5798 5795 5792 5788 5785
5837 5838 5838 5839 5839 5839 5839 5839 5839 5839 5839 5839 5838 5838 5837 5837 5836 5835 5834 5833 5832 5831 5830 5828 5827 5825 5823 5821 5819 5817 5814 5812 5809 5806 5803 5800 5797 5794 5790 5786 5783 5779 5776
5833 5833 5834 5834 5835 5835 5835 5835 5835 5835 5835 5834 5834 5833 5833 5832 5831 5830 5829 5828 5827 5826 5824 5823 5821 5819 5817 5815 5813 5810 5808 5805 5803 5800 5796 5793 5789 5786 5782 5778 5774 5769 5765
5828 5829 5829 5830 5830 5831 5831 5831 5831 5830 5830 5829 5829 5828 5827 5826 5825 5824 5823 5822 5821 5819 5818 5817 5815 5813 5811 5809 5807 5804 5801 5798 5795 5792 5788 5784 5780 5776 5772 5767 5763 5759 5754
5824 5824 5825 5825 5826 5826 5826 5826 5826 5826 5825 5825 5824 5823 5822 5821 5819 5818 5817 5816 5815 5813 5812 5810 5808 5806 5804 5802 5799 5797 5793 5790 5787 5783 5779 5776 5771 5767 5762 5757 5752 5747 5742
5819 5819 5820 5820 5821 5821 5822 5821 5821 5821 5820 5820 5819 5817 5816 5815 5813 5812 5811 5810 5809 5807 5805 5803 5801 5799 5796 5794 5791 5788 5785 5782 5779 5775 5770 5766 5761 5757 5752 5746 5741 5736 5731
5814 5814 5815 5816 5816 5816 5816 5816 5816 5815 5815 5814 5813 5812 5810 5809 5807 5806 5805 5804 5802 5800 5798 5796 5794 5791 5789 5786 5783 5780 5776 5773 5769 5765 5761 5756 5751 5746 5742 5736 5730 5724 5719